Terug naar catalogus

STARLINK-2491

ActiefCommunicatieVLEO
NORAD 48148·PAYLOAD·🇺🇸 United States

Gelanceerd Apr 7, 2021 vanaf Cape Canaveral Space Force Station

Loading…

Volgende Passages (komende 24 uur)

TLE

VersSource: CelesTrak SupGP

Epoch: Sep 14, 2026, 20:22 UTC

1 48148C 21027BJ  26257.84909722  .00000484  00000+0  15558-4 0  2570
2 48148  53.1582   5.4085 0001153  83.0639 176.5517 15.31706110    10

Volg STARLINK-2491 in realtime met AllMySat

Download on the App Store